Vertical_Velocity
-1 -4 -6 3 1 5 3 1 -2 6 24 51 155 -28 -1 -3 4 0 6 -7 -5 1
9 4 -6 -4 3 4 3 6 7 1 -10 -25 -19 137 10 -1 -4 3 3 10 -4 0
-2 -0 -7 -2 -4 2 -1 -3 -3 3 -18 -1 41 164 28 -8 -3 -1 2 8 -1 3
-10 7 -4 -1 -5 8 -15 3 -4 7 9 44 3 -8 7 42 7 2 -2 1 6 2
34 15 2 -2 -8 7 -9 0 -10 -1 10 16 6 32 56 98 -13 2 1 8 2 8
-3 7 -3 -1 -0 -1 -2 2 -0 4 4 -16 6 13 53 4 46 71 -8 12 -5 4
7 -2 4 -5 -5 -0 1 -8 2 -15 -1 -12 1 -21 -18 -18 5 52 95 33 -4 -0
5 19 9 5 3 -2 -4 1 -4 3 7 -4 5 7 5 -0 -1 2 4 20 64 3
5 9 9 26 28 43 10 14 -1 -3 3 1 14 -6 5 3 20 -5 23 0 33 -10
0 3 8 2 1 -7 21 21 3 -11 -1 6 4 5 13 6 6 15 -2 16 9 45
-15 -6 8 8 10 15 12 -1 -13 4 -1 -0 6 11 3 -13 -7 -3 -8 0 10 5
-2 -9 -6 10 4 11 7 2 1 -3 6 4 -5 -8 -16 -16 -16 4 -2 -7 -11 -11
-2 -3 3 6 10 12 5 3 1 22 2 4 4 -11 -7 -9 1 -4 -3 1 -0 7
3 4 6 5 7 -2 8 8 -8 -7 -2 -18 -9 -5 -6 -5 -5 -5 0 -9 -0 -0
Height
5555 5560 5567 5577 5590 5605 5615 5632 5645 5647 5653 5660 5665 5689 5697 5708 5716 5726 5733 5744 5750 5759
5540 5544 5550 5556 5567 5577 5596 5613 5622 5634 5643 5659 5663 5659 5681 5694 5702 5711 5720 5730 5739 5747
5527 5530 5536 5541 5548 5558 5577 5590 5603 5622 5632 5637 5647 5643 5656 5674 5688 5694 5704 5714 5726 5732
5518 5519 5523 5530 5542 5548 5561 5569 5588 5604 5607 5618 5627 5635 5650 5661 5671 5680 5688 5699 5711 5718
5513 5517 5519 5525 5534 5541 5549 5556 5571 5587 5595 5600 5617 5620 5624 5644 5657 5668 5676 5686 5697 5706
5516 5515 5519 5522 5526 5533 5538 5543 5558 5572 5585 5594 5604 5606 5614 5634 5635 5646 5662 5671 5681 5690
5511 5511 5513 5516 5521 5524 5527 5534 5548 5563 5581 5592 5600 5605 5613 5620 5624 5634 5638 5654 5663 5675
5511 5509 5508 5508 5510 5513 5519 5530 5544 5560 5574 5585 5595 5597 5606 5609 5614 5622 5629 5642 5638 5658
5509 5506 5507 5508 5506 5508 5518 5526 5540 5553 5565 5574 5581 5588 5592 5598 5602 5608 5612 5623 5628 5641
5514 5507 5505 5506 5504 5504 5510 5521 5533 5548 5557 5564 5573 5579 5584 5590 5593 5595 5602 5612 5621 5630
5516 5512 5505 5502 5500 5498 5505 5518 5532 5541 5549 5558 5564 5567 5574 5582 5586 5591 5594 5600 5607 5616
5510 5510 5506 5500 5500 5499 5504 5514 5525 5534 5544 5546 5551 5560 5567 5574 5581 5583 5586 5591 5599 5606
5501 5501 5499 5495 5496 5500 5505 5513 5518 5527 5534 5537 5546 5555 5560 5565 5570 5574 5578 5585 5590 5596
5497 5493 5491 5493 5498 5503 5507 5510 5516 5521 5524 5532 5539 5543 5553 5557 5560 5564 5569 5575 5582 5588